This demonstration page uses our WeatherBlox Daily Observations layout. Learn more.

Left ArrowRight Arrow

Hourly Observations for February 28, 2016

Temp ( °F °C ) Dew Point ( °F °C ) Humidity (%) Winds ( mph kmh ) Pressure ( in mb ) Visibility ( mi km ) Precip ( " mm )
12:51 am 00:51 Clear 48 8.9 18 -7.8 30 30 ESE 5 7 29.92 1013 10 16.0934 N/A
1:51 am 01:51 Clear 50 10 18 -7.8 28 28 N N/A 29.91 1013 10 16.0934 N/A
2:51 am 02:51 Clear 44 6.7 18 -7.8 35 35 ESE 5 7 29.92 1013 10 16.0934 N/A
3:51 am 03:51 Clear 42 5.6 18 -7.8 38 38 E 5 7 29.92 1013 10 16.0934 N/A
4:51 am 04:51 Clear 39 3.9 18 -7.8 43 43 SE 5 7 29.94 1014 10 16.0934 N/A
5:51 am 05:51 Clear 40 4.4 18 -7.8 41 41 N N/A 29.96 1015 10 16.0934 N/A
6:51 am 06:51 Sunny 39 3.9 18 -7.8 43 43 SE 3 6 29.99 1016 10 16.0934 N/A
7:51 am 07:51 Sunny 45 7.2 20 -6.7 37 37 ESE 5 7 30.01 1016 10 16.0934 N/A
8:51 am 08:51 Sunny 53 11.7 22 -5.6 30 30 S 3 6 30.02 1017 10 16.0934 N/A
9:51 am 09:51 Sunny 60 15.6 22 -5.6 23 23 N N/A 30.02 1017 10 16.0934 N/A
10:51 am 10:51 Sunny 66 18.9 22 -5.6 19 19 WNW 5 7 30.01 1016 10 16.0934 N/A
11:51 am 11:51 Sunny 70 21.1 22 -5.6 16 16 WSW 6 9 29.99 1016 10 16.0934 N/A
12:51 pm 12:51 Sunny 74 23.3 19 -7.2 12 12 NW 6 9 29.95 1014 10 16.0934 N/A
1:51 pm 13:51 Sunny 78 25.6 19 -7.2 11 11 W 8 13 29.91 1013 10 16.0934 N/A
2:51 pm 14:51 Sunny 79 26.1 17 -8.3 10 10 NW 12 19 29.9 1013 10 16.0934 N/A
3:51 pm 15:51 Sunny 80 26.7 18 -7.8 10 10 NNW 10 17 29.88 1012 10 16.0934 N/A
4:51 pm 16:51 Sunny 80 26.7 19 -7.2 10 10 WNW 14 22 29.89 1012 10 16.0934 N/A
5:51 pm 17:51 Sunny 76 24.4 18 -7.8 11 11 NW 13 20 29.9 1013 10 16.0934 N/A
6:51 pm 18:51 Clear 68 20 16 -8.9 13 13 NNW 8 13 29.93 1013 10 16.0934 N/A
7:51 pm 19:51 Clear 68 20 17 -8.3 14 14 NW 13 20 29.93 1014 10 16.0934 N/A
8:51 pm 20:51 Clear 64 17.8 17 -8.3 16 16 NW 9 15 29.95 1014 10 16.0934 N/A
9:51 pm 21:51 Clear 59 15 18 -7.8 20 20 NW 10 17 29.96 1014 10 16.0934 N/A
10:51 pm 22:51 Clear 57 13.9 19 -7.2 23 23 WNW 7 11 29.95 1014 10 16.0934 N/A
11:51 pm 23:51 Clear 56 13.3 19 -7.2 24 24 NW 7 11 29.95 1014 10 16.0934 N/A

Powered by AerisWeather